パンスターズ彗星

C/2018 A4 ( PanSTARRS )

English version
Home page
Updated on April 13, 2018

---------------------------------------------------------------------

・ プロフィール

発見日 2018年1月12日
発見光度 20.6等
発見者 Pan-STARRS 1 telescope (Haleakala)

・ 写真集

・ 軌道要素

Epoch 2018 May 2.0 TT = JDT 2458240.5
T 2018 May 18.72421 TT                                  MPCW
q   2.4033217            (2000.0)            P               Q
n   0.02256145     Peri.  356.11126     -0.06528806     -0.99638063
a  12.4038927      Node    97.62631     +0.91699978     -0.08141994
e   0.8062446      Incl.    3.14828     +0.39350842     +0.02442210
P  43.69
From 66 observations 2018 Jan. 12-Mar. 28, mean residual 0".5.

・ 光度変化

        m1 = 13.0 + 5 logΔ + 10.0 log r

---------------------------------------------------------------------

軌道要素はM.P.E.C. 2018-F152に掲載されたものです。
光度グラフはComet for Windowsで作成したものです。

---------------------------------------------------------------------

Copyright(C) Seiichi Yoshida (comet@aerith.net). All rights reserved.